Wind_Speed
36 36 37 39 39 39 37 36 35 33 31 30 30 29 28 26 26 26 27 27 26 26 25 25 25 26 26 28 29 30 32 34 36 37 38 40 41 42 43 44 45 46 47 46 47 48 49 50 51 51 52 54 53 52 52 52 48 44 43 45 44 43 43 42 42 41 40 39 38
36 37 37 38 38 38 37 37 35 34 31 29 29 28 26 25 25 25 26 26 26 25 24 25 25 26 27 28 29 30 32 34 36 37 37 38 39 40 42 44 45 46 46 46 47 49 50 51 52 52 51 50 50 51 52 54 53 50 47 44 42 42 42 42 41 41 40 40 40
38 37 37 37 37 37 37 37 35 33 31 29 28 26 24 24 24 25 25 25 24 24 24 24 25 26 28 28 29 30 32 34 35 36 36 37 38 39 41 43 44 44 45 45 47 49 51 52 54 54 53 50 49 49 51 52 55 55 51 47 44 44 44 44 43 42 41 41 41
38 38 38 38 37 37 37 35 34 33 31 30 27 24 23 23 24 24 24 24 24 24 25 25 26 27 27 28 29 30 31 33 34 35 36 37 38 39 40 42 43 44 44 45 47 49 51 52 54 55 55 53 52 52 52 52 55 56 54 50 47 46 46 47 47 46 44 43 43
38 38 37 37 37 36 35 34 33 32 31 29 26 24 23 23 23 24 24 25 25 24 24 25 26 26 26 27 28 29 30 31 33 34 35 36 37 38 39 40 41 42 43 44 46 49 50 52 53 55 56 55 54 53 53 54 55 55 54 52 49 48 47 48 49 48 47 46 45
38 37 36 35 35 34 33 32 32 30 29 27 25 25 24 24 24 25 26 27 26 25 23 23 24 24 24 24 25 27 28 30 31 32 34 35 36 37 38 38 39 40 42 45 47 49 50 51 52 54 54 53 52 53 54 55 54 53 52 52 50 48 47 48 49 49 48 47 47
37 36 35 34 33 33 32 31 29 28 26 25 25 25 24 24 24 26 27 27 26 25 23 22 22 22 22 22 22 23 25 28 29 31 32 32 33 34 35 35 36 38 42 46 49 49 49 50 52 52 50 48 49 50 51 54 53 52 51 51 50 48 46 44 45 46 45 45 45
34 34 33 32 32 32 31 30 28 26 25 25 26 25 24 24 25 26 27 27 25 24 23 22 21 20 20 20 20 21 23 26 27 28 29 29 29 30 31 32 34 37 42 46 49 50 49 49 50 49 47 45 47 49 51 50 49 48 48 50 51 49 47 45 44 43 42 42 43
33 33 32 31 31 31 30 28 26 25 25 25 25 25 24 25 25 26 27 26 24 23 22 22 21 20 19 19 19 19 21 24 25 26 26 26 26 26 28 30 33 38 43 47 50 51 50 49 49 48 47 46 48 49 50 48 45 44 46 49 49 49 48 46 45 44 43 44 44
33 33 32 31 31 30 29 27 25 24 24 24 24 24 25 26 27 28 27 25 23 22 22 22 21 20 19 19 18 18 19 21 23 24 25 25 25 26 28 30 33 38 43 48 51 53 52 51 51 49 49 49 49 48 47 46 45 44 45 47 47 46 46 46 46 47 48 48 48
33 33 33 32 31 29 28 26 25 24 23 23 23 24 26 28 29 29 27 25 23 23 23 22 21 20 19 19 18 18 18 19 20 22 24 26 27 27 28 31 33 37 42 47 51 53 55 54 52 50 48 49 50 48 45 44 45 44 45 46 46 45 45 45 46 48 51 51 50
31 32 32 31 30 28 27 26 25 24 23 22 23 24 26 28 29 28 26 24 23 23 22 21 20 20 19 19 18 17 17 18 18 20 22 25 27 28 29 31 34 37 41 46 50 53 54 54 51 49 47 48 48 48 46 43 43 44 44 44 44 44 44 44 45 48 52 53 51
29 30 31 30 29 28 27 26 25 24 23 22 23 26 28 28 28 26 24 23 23 23 22 21 20 20 19 19 18 17 17 18 18 20 22 25 27 29 30 32 35 38 41 45 49 52 53 52 50 47 46 47 47 47 46 45 43 43 44 44 43 43 43 43 44 47 50 53 53
28 29 29 30 29 28 27 26 25 23 23 23 25 27 28 27 26 24 22 22 22 22 22 21 20 20 19 18 18 17 17 18 19 21 23 26 28 30 31 33 36 39 42 45 48 51 52 52 50 48 47 47 47 48 48 47 46 46 45 44 43 43 43 44 43 44 46 48 50
27 28 29 29 28 27 26 25 24 24 24 25 27 28 27 26 24 21 20 21 22 22 22 22 21 19 18 18 17 17 17 18 20 22 24 26 28 30 31 34 37 40 43 45 48 50 52 52 50 49 48 48 48 48 48 49 49 49 48 46 45 44 44 45 44 44 44 46 47
27 27 28 28 28 27 26 25 24 24 25 27 28 27 25 24 21 19 19 21 22 23 23 22 20 19 18 17 17 17 18 19 22 23 25 26 27 28 29 33 37 41 43 45 47 49 51 51 50 49 49 49 49 49 48 49 50 51 51 49 47 46 46 46 45 45 45 45 46
27 27 27 27 27 26 25 24 23 24 26 27 27 25 23 21 19 19 20 22 23 24 23 21 19 18 18 17 17 18 19 21 23 24 25 26 26 26 27 30 35 39 43 45 46 48 49 50 49 49 49 49 49 49 49 48 49 51 51 50 49 48 48 47 47 47 46 46 46
26 26 26 26 26 26 25 24 24 25 25 25 24 22 21 20 20 20 21 23 24 23 22 20 19 18 18 18 18 19 21 23 24 25 25 25 25 25 26 28 32 37 41 43 45 46 48 48 48 48 49 50 50 50 49 49 49 50 51 51 51 50 50 49 49 48 47 47 46
25 25 25 25 25 25 25 25 25 25 24 23 21 20 20 20 21 22 23 24 24 22 20 19 19 18 18 18 19 20 21 23 24 25 25 24 24 24 25 27 30 34 38 41 43 44 45 46 46 47 48 50 50 51 50 50 50 51 51 52 52 52 52 51 50 48 47 47 47
24 24 24 24 24 24 25 25 25 25 23 20 19 19 19 20 22 23 24 25 24 21 20 19 19 19 19 19 19 20 21 22 24 24 24 23 23 24 25 26 28 31 35 38 40 41 42 42 43 44 45 47 48 50 51 52 53 53 53 53 53 54 53 52 50 48 47 46 46
24 24 24 23 23 23 24 24 24 23 21 19 18 19 20 21 22 24 25 25 23 21 19 19 19 19 19 19 20 20 21 21 22 23 22 22 23 23 24 24 25 28 30 33 36 38 39 40 40 40 41 43 44 46 49 51 54 55 54 54 53 53 54 53 51 49 47 46 45
24 23 23 23 22 23 23 23 23 21 19 18 18 19 20 21 22 23 24 24 22 20 18 18 18 18 19 19 20 20 20 20 20 20 21 21 22 22 23 23 24 25 26 29 32 36 39 40 40 40 40 41 42 44 46 48 50 51 52 52 51 52 54 54 52 50 49 47 44
23 23 23 22 22 22 22 21 20 19 18 18 18 19 20 21 21 22 23 23 21 19 17 17 17 17 18 19 19 19 19 18 17 17 18 19 20 21 22 23 24 24 26 28 31 34 37 39 40 40 40 40 41 42 44 45 45 46 47 48 48 50 53 54 53 52 50 49 45
22 22 22 21 21 21 20 19 18 18 18 18 19 19 20 21 22 22 21 20 18 17 16 16 17 17 17 18 17 17 16 16 15 15 16 17 19 21 22 23 24 26 27 29 31 33 35 37 38 38 39 40 40 41 42 42 41 41 41 42 44 47 50 52 52 52 52 50 48
21 21 20 20 19 19 18 18 18 18 19 19 19 20 21 22 22 21 19 17 16 16 16 17 18 18 18 17 15 15 14 14 14 14 15 16 17 20 22 23 25 27 28 30 31 32 32 32 33 34 36 37 38 40 41 41 40 39 37 38 40 43 46 49 50 51 51 51 50
20 20 19 19 18 17 17 17 18 19 20 21 21 22 23 23 22 19 17 15 14 14 15 16 17 18 17 16 15 14 13 13 13 14 14 15 17 19 21 23 24 26 27 29 30 30 30 29 29 30 31 33 35 36 37 38 39 39 37 36 36 39 42 45 47 48 49 51 52
19 19 19 20 19 19 19 19 19 21 22 23 23 23 22 21 19 17 15 14 14 14 14 15 16 17 16 16 15 14 14 14 13 13 13 14 16 18 20 21 22 23 24 25 26 27 27 27 27 26 27 29 31 32 33 34 36 37 37 35 35 36 39 43 45 47 49 51 52
18 19 20 21 21 22 22 21 22 23 24 23 22 21 20 18 17 16 16 15 15 14 14 14 15 15 15 15 15 15 15 14 13 13 12 12 13 15 16 17 17 18 18 19 20 22 23 24 24 23 24 26 28 29 29 30 32 34 35 35 34 34 36 39 42 45 47 48 49
17 18 19 21 22 22 22 22 22 23 22 21 20 18 17 17 17 17 17 17 16 15 14 14 14 14 15 15 15 15 15 14 13 13 12 11 11 11 12 12 12 12 12 12 13 15 17 19 19 20 21 22 24 25 27 28 30 32 34 34 33 33 33 35 37 39 41 42 41
16 17 18 19 20 20 19 19 19 20 19 18 17 17 17 18 18 18 18 17 17 16 15 14 13 13 14 15 15 15 15 14 13 12 11 10 10 10 9 9 9 9 8 8 9 11 13 14 15 16 17 18 20 22 24 26 28 30 31 31 30 29 28 29 30 31 32 33 33
16 16 17 18 18 18 17 17 17 17 17 17 17 17 18 19 19 18 17 16 16 15 14 13 12 12 13 14 14 14 14 13 12 11 10 10 9 8 8 8 8 7 6 6 7 8 9 10 11 12 12 13 16 21 25 27 27 27 27 28 28 28 27 27 27 27 27 28 29
17 17 16 17 17 16 16 17 17 17 17 16 17 17 18 19 18 17 15 14 14 13 13 12 11 11 12 12 13 13 13 12 11 10 10 9 8 8 8 9 8 7 6 5 5 6 7 8 8 10 12 15 20 23 26 27 27 27 27 28 29 29 29 29 29 29 29 29 29
17 17 17 16 15 15 15 16 16 16 16 17 18 19 20 19 17 15 13 12 12 11 11 11 11 11 11 11 12 12 12 12 11 11 11 10 8 8 10 11 9 7 6 5 5 5 6 8 10 12 15 18 22 26 28 28 28 28 28 28 28 29 30 31 31 31 31 32 32
17 17 16 15 14 14 14 14 15 15 17 19 20 21 21 18 16 14 12 12 11 10 10 10 10 10 10 10 10 10 10 11 11 11 11 10 9 9 10 11 9 8 7 7 7 7 8 10 12 13 15 18 21 25 28 29 29 28 28 28 28 28 29 29 30 31 32 32 33
16 16 15 14 14 14 14 14 16 18 20 21 22 22 20 16 14 13 12 12 11 10 9 9 9 10 11 11 12 12 12 11 10 10 10 10 10 11 11 10 9 9 8 9 9 10 11 12 12 13 14 17 21 24 27 28 29 29 29 28 28 28 28 29 29 30 31 31 31
15 15 15 14 15 15 16 18 20 21 22 23 22 20 17 14 12 12 11 10 9 8 9 10 12 13 15 15 15 15 14 13 12 12 12 13 13 13 11 11 10 10 10 11 12 12 13 13 13 13 14 17 20 24 26 28 29 29 29 29 29 29 29 29 29 29 29 29 29
15 15 15 16 16 17 19 20 22 23 23 22 19 16 14 12 11 10 9 9 9 10 13 16 17 18 17 16 16 16 15 15 15 15 15 15 15 14 12 12 12 12 12 12 13 13 14 14 13 13 14 17 20 22 24 26 28 29 29 29 29 28 28 28 28 28 28 27 27
14 14 15 16 17 17 18 20 21 21 20 18 15 13 12 11 11 10 9 9 12 16 19 20 20 19 18 17 16 16 15 15 15 16 16 15 15 14 13 13 13 13 13 13 14 14 14 14 14 14 15 16 18 20 22 24 26 27 28 28 27 27 27 27 27 26 26 26 26
14 15 15 16 16 17 17 18 18 17 16 14 13 12 12 12 13 13 13 14 18 20 21 21 20 19 19 18 17 16 16 15 15 15 15 15 15 14 14 13 13 13 14 14 15 15 15 15 15 15 15 16 17 18 19 21 23 24 25 25 25 25 25 25 24 24 24 24 23
13 14 15 15 16 16 17 16 16 15 13 12 12 12 14 17 18 18 18 19 20 21 20 20 20 19 18 18 17 16 15 15 15 14 14 14 14 14 14 14 14 14 15 15 16 16 15 15 15 15 16 17 17 17 18 19 20 21 22 23 23 22 22 22 22 21 21 21 20
13 14 14 14 14 15 16 16 15 13 11 11 13 15 19 22 22 21 20 20 20 20 19 19 19 19 18 17 16 16 15 15 15 14 14 14 14 14 14 14 15 15 16 17 17 17 17 16 16 16 17 17 18 18 18 19 20 20 21 22 21 21 21 20 19 19 18 18 18
Wind_Direction
216 219 220 221 221 220 219 218 219 219 218 218 217 217 217 216 216 215 214 213 211 210 210 210 209 209 211 215 220 225 228 230 231 230 228 226 225 226 227 227 225 222 218 213 210 209 208 208 208 206 205 205 203 200 199 197 193 190 189 193 197 202 208 213 217 221 223 224 223
217 219 220 222 222 221 220 220 220 219 219 218 219 220 218 216 215 215 214 213 211 210 210 210 210 211 214 219 223 226 229 230 230 229 227 226 226 226 227 227 226 224 221 217 213 211 210 210 209 207 204 202 201 200 199 199 198 197 197 200 203 206 209 212 216 219 222 222 223
220 220 220 221 221 220 220 221 220 219 218 218 221 220 216 215 214 214 213 212 211 211 211 212 213 215 219 222 226 228 229 230 229 228 226 225 226 226 227 228 228 227 224 220 216 214 212 211 209 207 204 201 199 199 200 201 202 203 204 208 213 214 214 214 216 220 222 223 223
222 222 221 221 220 221 221 220 220 220 220 221 220 217 214 213 213 213 213 213 213 213 213 214 217 220 222 225 228 230 230 230 229 228 227 226 226 227 227 228 229 229 227 222 217 214 212 211 209 206 204 202 202 204 204 205 205 206 208 213 218 220 219 217 217 219 222 224 224
222 223 222 222 222 222 221 221 220 221 222 222 218 216 214 213 212 211 212 213 215 215 216 218 222 223 224 225 228 230 230 230 230 229 228 227 227 227 228 229 230 230 229 224 217 213 212 210 207 205 204 205 207 209 209 209 208 208 210 214 219 222 221 219 218 220 222 224 224
221 223 222 220 221 220 219 220 221 223 222 219 216 215 214 212 211 213 215 218 221 222 222 221 222 224 224 224 227 228 229 229 229 229 228 228 227 227 228 229 231 232 230 224 216 212 210 209 206 204 204 207 210 212 213 212 211 210 212 215 219 221 221 219 220 221 223 224 223
221 221 220 219 219 218 218 218 220 221 220 217 215 214 213 211 212 215 219 224 227 228 225 222 220 220 222 226 227 227 226 225 226 227 227 226 226 226 227 228 231 233 231 225 216 210 207 206 204 203 204 208 212 214 214 214 212 212 213 216 218 219 218 217 219 221 223 223 222
218 218 217 217 217 217 217 217 217 217 216 216 217 216 214 212 214 218 222 226 227 226 223 220 219 221 225 229 229 227 223 221 223 224 224 224 225 226 227 229 232 233 230 224 215 208 204 202 200 201 204 210 215 217 216 214 213 212 214 217 218 218 217 217 217 219 222 224 225
213 215 215 215 216 217 217 217 216 216 216 216 217 216 216 216 217 220 224 227 225 222 220 220 223 227 231 233 232 228 223 220 220 222 223 224 225 227 229 231 230 229 227 221 213 206 200 198 198 201 207 213 217 219 218 215 214 214 216 218 218 218 217 217 217 219 222 225 227
211 213 213 213 215 217 217 216 215 215 215 215 215 216 218 221 222 224 227 230 225 219 217 221 226 230 233 235 234 230 225 221 220 222 224 226 228 230 231 231 226 223 221 218 212 206 201 199 200 205 212 217 220 219 218 217 217 217 218 219 218 218 218 217 218 219 222 224 227
211 213 214 214 215 216 216 214 213 213 214 214 215 216 219 223 225 228 232 233 225 217 216 221 227 232 235 235 234 230 227 225 223 222 224 226 228 231 232 231 227 222 219 216 212 208 205 204 206 209 214 219 221 220 219 218 218 218 218 219 218 218 217 218 218 219 222 224 226
208 212 215 215 215 215 214 212 212 213 213 213 215 217 220 222 225 230 233 230 221 216 218 224 229 233 235 235 233 229 227 226 226 225 226 227 229 231 233 232 229 224 221 218 214 211 208 208 209 212 216 220 222 222 220 217 216 215 216 216 217 217 217 217 218 220 222 224 226
207 210 212 213 214 214 214 213 213 213 213 213 215 218 220 223 228 231 229 222 216 216 221 228 232 234 235 234 232 229 227 227 229 230 230 230 230 232 233 233 230 226 223 220 217 214 211 210 211 214 218 221 222 222 220 217 214 213 213 214 214 215 216 217 219 221 223 225 228
205 207 209 212 213 213 213 212 212 213 214 215 217 219 222 226 229 227 221 215 215 218 224 230 233 233 233 233 232 230 230 231 233 233 232 231 231 232 233 232 230 227 223 221 219 217 214 213 214 217 220 222 223 223 222 219 216 213 213 213 214 216 217 218 219 220 221 222 226
204 206 208 210 212 212 212 211 211 212 214 216 218 220 224 228 226 219 213 212 216 222 227 230 231 230 230 230 232 233 234 235 236 235 233 231 231 231 232 232 230 227 224 222 221 220 219 219 219 221 222 223 224 224 223 222 219 217 216 215 216 217 219 219 219 218 219 221 222
203 205 207 209 210 210 209 209 209 211 214 217 219 223 226 225 219 214 212 214 218 222 225 226 226 226 227 229 231 234 237 238 237 236 233 230 228 229 230 231 229 227 225 223 223 223 223 224 224 224 224 224 224 224 224 223 223 221 219 218 218 219 220 220 219 218 219 221 223
202 203 205 207 209 210 209 208 208 211 215 218 222 224 222 217 214 216 219 219 220 220 220 222 222 222 224 227 230 233 236 238 237 236 234 230 227 225 227 229 229 227 225 224 224 224 225 225 226 226 226 225 225 225 225 224 224 223 222 220 220 220 221 222 222 221 221 222 224
200 202 204 206 208 209 209 208 209 212 217 220 221 219 214 211 214 220 223 223 219 217 216 217 218 220 222 225 229 233 236 237 236 235 233 231 227 224 225 227 229 227 225 224 223 224 224 225 226 226 226 226 226 226 226 226 226 225 224 223 221 221 222 223 224 224 224 224 225
198 201 204 206 207 208 209 210 211 215 219 221 217 211 208 210 216 221 223 221 218 214 212 214 217 219 222 226 230 234 236 237 236 234 232 230 227 224 224 226 228 227 225 223 223 223 224 225 225 225 226 226 227 227 228 228 228 227 226 225 224 223 224 225 226 226 226 226 227
197 200 204 206 207 208 209 210 212 216 220 220 212 206 206 211 217 220 221 219 217 213 210 211 215 220 224 228 231 234 236 237 235 233 231 230 227 224 223 225 226 227 227 224 223 223 223 223 223 224 224 224 225 227 228 229 229 228 227 226 225 225 226 227 228 228 227 227 227
198 201 203 205 206 207 209 211 214 217 218 215 208 205 208 213 217 220 221 221 220 216 211 209 213 219 225 228 231 233 236 237 235 234 232 232 229 226 224 224 226 229 230 229 227 226 224 222 221 221 221 222 223 225 227 229 229 228 227 227 226 226 227 228 229 229 228 227 228
200 202 203 205 206 208 210 214 216 216 213 208 205 207 211 214 217 220 222 223 222 218 212 207 209 217 224 229 232 234 235 237 236 236 236 236 234 230 226 224 226 229 232 234 233 230 227 223 221 220 220 221 223 225 226 227 227 227 227 226 225 226 227 229 230 230 229 229 229
201 203 205 206 207 210 213 214 214 211 207 204 204 208 211 215 218 221 223 224 222 217 211 206 207 214 223 229 232 233 234 234 234 236 238 240 238 234 229 225 225 228 233 236 236 233 229 225 222 221 221 222 224 226 226 226 226 226 225 225 224 225 227 229 230 231 231 231 231
201 202 204 206 208 210 212 211 208 205 204 203 205 208 212 216 218 220 221 222 219 213 209 207 208 214 221 227 229 230 230 230 231 234 238 241 241 238 234 230 229 230 233 237 238 235 231 227 225 224 225 226 227 228 228 228 227 226 225 225 224 225 227 229 231 231 232 233 233
199 200 202 204 207 209 208 206 203 203 205 207 210 212 215 216 217 218 218 217 214 211 210 211 213 215 218 220 222 223 225 227 230 233 237 240 242 241 239 236 235 235 237 238 238 237 234 232 230 230 230 230 230 231 232 232 232 231 230 228 226 225 226 228 230 232 233 234 235
197 200 203 205 207 207 205 202 201 204 208 211 213 214 215 216 216 215 213 211 209 209 210 213 214 214 213 213 213 216 220 225 229 233 236 240 242 242 241 240 241 241 241 241 241 239 237 235 235 237 237 236 235 235 236 238 238 238 236 233 229 226 225 226 226 228 231 233 235
196 200 204 206 209 210 207 203 202 205 209 211 212 214 215 215 214 211 208 206 206 207 208 209 211 210 208 207 208 213 219 223 227 230 234 239 242 243 243 243 244 245 247 247 246 245 242 240 240 242 244 243 241 241 242 243 243 242 239 235 230 226 223 222 222 224 226 229 230
195 198 202 206 208 207 205 203 203 205 207 209 211 213 214 213 210 208 206 205 205 205 205 205 207 207 205 206 209 214 218 220 222 224 227 233 238 242 243 244 245 247 249 251 252 250 249 247 246 247 249 249 248 248 249 249 248 245 240 235 229 224 221 219 219 220 221 222 223
195 197 200 204 204 201 198 197 199 202 206 209 210 210 209 207 206 205 206 208 210 210 208 206 206 206 205 206 209 212 214 215 215 215 217 221 226 231 235 238 241 244 248 251 253 253 253 252 252 252 252 253 252 251 252 253 251 247 242 235 230 225 222 219 218 218 218 219 219
197 197 199 202 202 198 194 194 198 202 206 209 208 205 203 203 203 205 209 214 218 218 214 210 208 205 204 204 205 207 207 208 207 206 206 210 216 221 224 229 234 238 242 246 250 253 253 254 254 254 254 254 254 252 252 251 249 245 240 235 231 227 224 223 223 222 222 222 223
199 199 199 201 202 200 199 200 203 205 207 207 205 202 201 202 204 207 212 218 222 223 220 215 210 205 201 199 199 200 201 202 201 201 202 206 211 216 221 225 230 232 233 238 245 249 251 252 253 254 254 254 253 251 248 245 240 236 234 232 230 228 227 227 228 229 230 231 233
200 200 201 204 206 206 205 204 203 202 202 202 202 202 203 206 208 210 213 216 220 221 220 215 209 202 197 196 196 197 199 200 201 201 202 206 213 220 225 229 231 229 224 224 232 240 246 249 251 252 252 252 248 243 239 237 235 233 233 232 232 231 231 232 233 234 236 237 239
201 201 204 206 208 207 203 200 197 195 197 199 202 204 206 209 211 211 210 210 211 212 212 209 204 199 196 195 196 197 199 201 202 202 202 204 212 221 228 231 232 226 217 213 216 226 236 242 244 245 245 244 241 237 235 234 234 234 234 234 235 235 235 236 237 238 239 240 242
202 203 205 207 207 205 202 199 197 197 198 200 202 204 206 208 207 204 201 199 199 199 201 202 201 200 198 198 197 197 198 199 201 201 200 198 204 214 223 228 227 223 216 212 213 222 231 235 237 238 239 239 238 236 235 234 234 235 235 236 236 236 236 237 237 238 239 240 241
204 204 204 206 206 206 207 207 205 201 198 196 197 198 199 200 199 196 193 191 190 193 198 202 203 205 205 203 201 201 201 199 195 194 195 196 203 212 219 220 218 217 218 218 220 224 229 231 233 235 237 237 236 235 234 233 234 235 236 236 237 236 236 236 236 237 238 238 239
207 202 201 204 207 208 208 208 203 197 192 189 190 191 192 194 194 193 190 188 189 197 205 205 203 205 208 209 205 203 201 200 196 196 197 201 206 209 210 209 210 214 218 223 226 228 230 232 233 235 235 235 235 234 233 233 234 234 235 236 236 236 236 236 236 236 236 235 234
212 202 197 199 202 203 202 200 196 190 186 185 186 189 191 191 191 191 192 193 201 205 206 205 205 205 207 209 208 206 204 203 201 200 200 202 205 206 206 206 209 213 219 225 229 232 233 234 234 233 233 233 233 233 233 233 233 233 234 234 234 234 234 234 234 233 232 230 228
219 205 196 193 196 197 195 192 189 187 186 186 189 192 193 193 194 198 202 205 210 210 207 206 206 207 208 209 208 206 204 203 203 203 203 204 205 206 207 210 212 217 222 228 231 234 236 236 235 233 232 231 232 233 233 233 232 232 232 232 231 231 230 230 228 228 226 225 223
224 212 199 193 194 195 194 191 190 193 196 197 196 195 196 197 201 205 207 207 208 208 208 207 207 206 207 207 206 206 205 204 204 204 205 205 206 207 208 211 215 220 224 228 232 234 236 237 237 235 233 232 233 234 234 234 233 231 230 229 227 225 224 223 222 221 220 220 219
227 218 207 198 194 195 197 198 202 207 209 202 192 191 195 195 196 199 204 206 206 207 208 208 208 207 206 206 206 207 207 207 206 206 207 208 208 208 209 211 214 218 221 224 227 229 231 234 237 236 236 235 234 235 235 236 235 233 230 227 224 221 220 220 219 219 219 220 221
226 222 215 206 198 197 199 204 208 209 201 188 186 190 194 195 196 200 204 206 206 206 206 207 207 207 206 206 207 209 210 210 208 208 209 210 210 210 210 211 213 215 217 218 220 221 224 227 230 233 235 236 236 236 236 237 236 234 231 229 227 224 223 224 225 226 227 229 231
Height
1391 1392 1393 1394 1396 1397 1399 1401 1402 1403 1405 1406 1407 1408 1410 1411 1412 1413 1414 1416 1417 1418 1420 1421 1422 1424 1425 1426 1428 1429 1430 1432 1433 1434 1436 1437 1438 1440 1441 1442 1443 1444 1445 1447 1449 1450 1451 1453 1454 1456 1457 1458 1460 1461 1464 1466 1469 1471 1473 1476 1478 1481 1483 1485 1486 1487 1489 1490 1491
1388 1390 1391 1393 1394 1396 1398 1399 1400 1401 1403 1405 1406 1407 1409 1410 1411 1412 1413 1414 1416 1417 1418 1420 1421 1422 1424 1425 1426 1428 1429 1430 1431 1432 1434 1435 1437 1438 1439 1440 1441 1442 1444 1446 1447 1448 1449 1450 1452 1454 1455 1457 1459 1461 1462 1465 1467 1470 1472 1474 1476 1479 1481 1483 1485 1486 1487 1489 1490
1386 1388 1390 1391 1393 1395 1396 1397 1399 1401 1402 1404 1405 1406 1407 1409 1410 1411 1411 1413 1414 1416 1417 1419 1420 1421 1422 1424 1425 1426 1428 1429 1430 1431 1432 1434 1435 1436 1437 1438 1440 1441 1442 1444 1445 1446 1446 1448 1449 1451 1452 1455 1456 1459 1461 1463 1466 1468 1470 1472 1475 1477 1479 1481 1483 1485 1486 1487 1488
1385 1386 1388 1390 1391 1393 1395 1396 1398 1399 1401 1402 1404 1405 1406 1407 1408 1409 1410 1411 1413 1415 1416 1417 1418 1419 1421 1422 1424 1425 1426 1427 1428 1429 1431 1432 1433 1435 1436 1437 1438 1440 1441 1442 1443 1444 1444 1445 1447 1448 1450 1452 1454 1457 1459 1462 1464 1466 1469 1471 1473 1475 1477 1479 1481 1483 1484 1486 1486
1383 1385 1386 1388 1390 1392 1393 1395 1397 1398 1400 1401 1402 1404 1405 1406 1407 1408 1409 1410 1411 1413 1414 1416 1417 1418 1419 1421 1422 1423 1425 1426 1426 1428 1429 1430 1431 1433 1434 1436 1437 1438 1439 1441 1441 1442 1442 1443 1445 1446 1447 1450 1453 1456 1458 1460 1462 1464 1467 1470 1472 1473 1475 1477 1479 1481 1482 1483 1485
1381 1383 1385 1387 1389 1391 1393 1395 1396 1397 1398 1400 1401 1402 1403 1404 1406 1406 1407 1408 1410 1411 1413 1414 1416 1417 1418 1419 1421 1422 1423 1424 1425 1426 1427 1429 1430 1431 1433 1434 1435 1436 1438 1439 1440 1440 1441 1441 1442 1444 1446 1450 1453 1455 1456 1458 1460 1463 1466 1468 1470 1471 1473 1475 1477 1478 1480 1481 1482
1380 1382 1384 1386 1388 1390 1392 1393 1395 1396 1397 1398 1399 1400 1401 1403 1404 1405 1406 1407 1409 1410 1411 1413 1414 1416 1416 1418 1419 1420 1421 1422 1423 1424 1425 1427 1428 1430 1431 1432 1434 1435 1436 1437 1438 1439 1439 1440 1441 1443 1446 1450 1452 1454 1456 1457 1459 1461 1464 1466 1467 1469 1471 1473 1475 1476 1477 1478 1479
1380 1381 1383 1385 1387 1389 1390 1392 1393 1395 1396 1397 1397 1399 1401 1402 1403 1404 1405 1406 1408 1409 1410 1411 1413 1414 1415 1416 1417 1419 1420 1421 1421 1422 1424 1425 1426 1428 1430 1431 1432 1433 1434 1435 1436 1437 1438 1439 1439 1441 1445 1449 1451 1452 1453 1455 1458 1460 1462 1463 1465 1467 1469 1471 1472 1474 1475 1475 1476
1379 1381 1382 1384 1386 1387 1389 1391 1392 1393 1394 1395 1396 1398 1400 1401 1402 1403 1404 1405 1406 1408 1409 1410 1411 1413 1414 1415 1416 1417 1418 1419 1421 1421 1422 1424 1425 1426 1428 1429 1431 1431 1432 1433 1434 1436 1437 1437 1438 1441 1444 1447 1448 1450 1451 1454 1456 1458 1460 1461 1463 1465 1466 1468 1470 1471 1472 1473 1474
1377 1379 1381 1383 1384 1386 1388 1390 1391 1392 1393 1394 1396 1397 1398 1399 1401 1402 1403 1404 1405 1407 1408 1409 1410 1411 1413 1414 1415 1416 1417 1418 1419 1421 1421 1423 1424 1425 1426 1428 1429 1431 1431 1431 1433 1434 1435 1436 1437 1440 1443 1445 1446 1448 1450 1452 1454 1456 1458 1459 1461 1463 1465 1466 1468 1469 1470 1471 1472
1376 1378 1379 1381 1383 1385 1387 1389 1390 1391 1392 1394 1395 1396 1397 1398 1399 1401 1402 1403 1404 1406 1407 1408 1409 1410 1411 1412 1413 1415 1416 1417 1418 1419 1420 1421 1422 1424 1425 1426 1428 1429 1430 1430 1431 1433 1434 1435 1437 1440 1442 1443 1445 1447 1449 1451 1452 1454 1456 1456 1459 1461 1462 1464 1465 1466 1467 1469 1470
1376 1377 1378 1380 1382 1384 1386 1387 1389 1390 1391 1393 1394 1395 1396 1397 1398 1400 1401 1402 1403 1404 1406 1407 1408 1409 1410 1411 1412 1413 1415 1416 1417 1418 1419 1420 1421 1422 1423 1425 1426 1427 1428 1429 1430 1431 1433 1434 1436 1439 1441 1442 1444 1445 1447 1449 1451 1452 1454 1455 1457 1458 1460 1461 1463 1464 1465 1467 1469
1375 1376 1378 1379 1381 1383 1384 1386 1387 1389 1390 1392 1393 1394 1395 1396 1397 1398 1399 1401 1402 1403 1405 1406 1407 1408 1409 1410 1411 1412 1414 1415 1416 1417 1418 1419 1420 1421 1422 1423 1425 1426 1426 1427 1428 1429 1431 1433 1435 1437 1439 1440 1442 1443 1445 1447 1449 1451 1452 1453 1455 1456 1457 1459 1461 1462 1463 1465 1467
1374 1376 1377 1378 1380 1382 1383 1385 1386 1388 1389 1391 1392 1393 1394 1395 1396 1397 1398 1400 1401 1402 1404 1405 1406 1407 1408 1409 1410 1411 1412 1413 1415 1416 1416 1418 1419 1420 1421 1422 1423 1424 1425 1426 1426 1428 1429 1431 1433 1435 1437 1438 1439 1441 1443 1445 1447 1449 1450 1451 1453 1454 1455 1456 1458 1460 1461 1463 1465
1374 1375 1376 1377 1379 1381 1382 1384 1386 1387 1388 1390 1391 1392 1393 1394 1395 1396 1397 1399 1400 1401 1402 1404 1405 1406 1407 1408 1409 1410 1411 1412 1413 1414 1416 1417 1418 1419 1421 1421 1422 1423 1424 1424 1425 1426 1428 1429 1431 1433 1435 1436 1437 1439 1441 1443 1445 1446 1448 1450 1451 1452 1453 1455 1456 1458 1459 1461 1462
1373 1374 1376 1377 1378 1380 1382 1383 1385 1386 1387 1389 1390 1391 1391 1392 1394 1395 1396 1398 1399 1401 1402 1403 1404 1405 1406 1407 1408 1409 1410 1411 1412 1413 1414 1416 1417 1418 1420 1421 1421 1422 1422 1423 1424 1425 1426 1428 1430 1431 1433 1434 1436 1437 1439 1441 1443 1445 1446 1448 1449 1450 1451 1453 1454 1456 1457 1458 1460
1372 1374 1375 1376 1378 1379 1381 1382 1384 1385 1386 1388 1389 1390 1391 1392 1393 1394 1396 1397 1399 1400 1401 1402 1403 1404 1405 1406 1407 1408 1409 1410 1411 1412 1413 1414 1416 1417 1418 1419 1420 1421 1421 1422 1423 1424 1425 1426 1428 1430 1431 1433 1434 1436 1438 1439 1441 1443 1444 1446 1447 1448 1450 1451 1452 1454 1455 1457 1458
1372 1373 1374 1376 1377 1378 1380 1381 1383 1384 1386 1387 1388 1389 1390 1391 1392 1393 1395 1396 1398 1399 1400 1401 1402 1403 1404 1405 1406 1407 1408 1409 1410 1411 1412 1413 1415 1416 1417 1418 1419 1420 1420 1421 1422 1423 1424 1425 1427 1428 1430 1431 1433 1434 1436 1437 1439 1441 1442 1443 1445 1446 1448 1449 1450 1452 1453 1455 1456
1371 1372 1374 1375 1376 1378 1379 1381 1382 1384 1385 1386 1387 1388 1389 1391 1392 1393 1394 1396 1397 1398 1400 1401 1401 1402 1403 1404 1405 1406 1407 1408 1409 1410 1411 1412 1414 1415 1416 1417 1418 1419 1420 1421 1421 1422 1423 1424 1426 1427 1428 1430 1431 1433 1434 1436 1437 1438 1439 1441 1442 1444 1446 1447 1449 1450 1452 1453 1455
1370 1371 1373 1374 1376 1377 1379 1380 1382 1383 1384 1385 1386 1387 1389 1390 1391 1392 1394 1395 1396 1398 1399 1400 1401 1402 1402 1403 1405 1406 1406 1407 1408 1409 1411 1412 1413 1414 1415 1416 1417 1418 1419 1420 1421 1422 1423 1424 1425 1426 1427 1429 1430 1431 1432 1434 1434 1435 1436 1438 1440 1442 1443 1445 1447 1449 1450 1452 1453
1369 1371 1372 1374 1375 1377 1378 1380 1381 1382 1383 1384 1386 1387 1388 1389 1391 1391 1393 1394 1396 1397 1398 1399 1400 1401 1402 1403 1404 1405 1406 1406 1408 1409 1410 1411 1412 1413 1414 1415 1416 1417 1418 1420 1421 1421 1422 1423 1425 1426 1427 1428 1429 1430 1431 1432 1432 1433 1435 1436 1438 1440 1441 1443 1446 1447 1449 1450 1451
1368 1370 1371 1373 1375 1376 1377 1379 1380 1381 1383 1384 1385 1386 1387 1389 1390 1391 1392 1393 1395 1396 1397 1398 1399 1400 1401 1402 1403 1404 1405 1406 1407 1408 1409 1410 1411 1412 1413 1414 1416 1416 1418 1419 1420 1420 1421 1423 1424 1425 1426 1427 1428 1429 1430 1430 1431 1432 1434 1435 1436 1437 1439 1441 1444 1446 1447 1448 1450
1368 1369 1371 1372 1374 1375 1377 1378 1379 1381 1382 1383 1384 1386 1387 1388 1389 1390 1391 1393 1394 1395 1396 1397 1399 1400 1401 1402 1403 1404 1405 1406 1407 1408 1408 1409 1410 1411 1412 1414 1415 1416 1416 1417 1418 1419 1420 1421 1423 1424 1425 1426 1427 1428 1428 1429 1430 1431 1433 1434 1435 1436 1437 1439 1441 1443 1445 1446 1447
1367 1368 1370 1371 1373 1374 1376 1377 1378 1380 1381 1382 1383 1385 1386 1387 1388 1390 1391 1392 1393 1394 1396 1397 1398 1399 1400 1401 1402 1403 1404 1405 1406 1407 1408 1408 1409 1410 1411 1412 1414 1414 1415 1416 1417 1418 1419 1421 1422 1423 1424 1426 1426 1427 1428 1428 1429 1431 1431 1433 1434 1435 1435 1437 1439 1441 1443 1444 1445
1366 1367 1369 1371 1372 1373 1375 1376 1377 1379 1380 1381 1382 1384 1385 1386 1387 1389 1390 1391 1392 1394 1395 1396 1397 1398 1400 1401 1402 1403 1403 1404 1405 1406 1407 1408 1408 1409 1410 1411 1412 1413 1414 1415 1416 1417 1418 1420 1421 1422 1424 1425 1426 1426 1427 1428 1429 1430 1431 1431 1432 1433 1434 1436 1437 1439 1441 1442 1443
1365 1367 1368 1369 1371 1372 1374 1375 1376 1378 1379 1381 1382 1383 1384 1386 1387 1388 1389 1391 1392 1393 1394 1395 1396 1397 1399 1400 1401 1402 1403 1404 1404 1405 1406 1407 1408 1409 1409 1410 1411 1412 1413 1414 1415 1416 1417 1419 1420 1421 1422 1423 1424 1426 1426 1427 1428 1429 1430 1431 1431 1432 1433 1434 1436 1437 1439 1440 1441
1365 1366 1367 1368 1370 1371 1373 1374 1376 1377 1378 1380 1381 1382 1383 1385 1386 1387 1389 1390 1391 1392 1393 1395 1396 1396 1397 1399 1400 1401 1402 1403 1404 1404 1405 1406 1407 1408 1409 1410 1410 1411 1412 1413 1414 1415 1416 1417 1419 1420 1421 1422 1423 1424 1425 1426 1427 1428 1429 1429 1430 1431 1431 1432 1434 1435 1436 1438 1439
1364 1366 1367 1368 1369 1371 1372 1373 1375 1376 1378 1379 1380 1381 1383 1384 1386 1387 1388 1389 1391 1392 1393 1394 1395 1396 1397 1398 1399 1400 1401 1402 1403 1404 1405 1406 1406 1407 1408 1409 1410 1410 1411 1412 1413 1414 1415 1416 1418 1419 1420 1421 1422 1423 1424 1425 1426 1427 1428 1428 1429 1430 1431 1431 1433 1434 1435 1436 1437
1364 1365 1366 1368 1369 1370 1371 1373 1374 1376 1377 1379 1380 1381 1382 1384 1385 1386 1387 1389 1390 1391 1392 1393 1394 1395 1396 1397 1398 1399 1400 1401 1402 1403 1404 1405 1406 1406 1407 1408 1409 1410 1410 1411 1412 1413 1415 1416 1417 1418 1419 1420 1421 1422 1423 1424 1425 1426 1426 1427 1428 1429 1431 1431 1432 1433 1434 1435 1436
1363 1365 1366 1367 1369 1370 1371 1373 1374 1375 1377 1378 1379 1381 1382 1383 1384 1386 1387 1388 1389 1390 1391 1393 1394 1395 1396 1396 1398 1399 1400 1401 1401 1402 1403 1404 1405 1406 1406 1407 1408 1409 1410 1411 1411 1413 1414 1415 1416 1417 1418 1419 1420 1421 1422 1423 1424 1425 1426 1428 1429 1430 1431 1432 1433 1433 1434 1435 1436
1363 1364 1366 1367 1368 1370 1371 1372 1373 1375 1376 1377 1379 1380 1381 1382 1384 1385 1386 1387 1388 1390 1391 1392 1393 1394 1395 1396 1397 1398 1399 1400 1401 1401 1402 1403 1404 1405 1406 1406 1407 1408 1409 1410 1411 1412 1413 1414 1415 1416 1417 1418 1419 1420 1421 1423 1424 1425 1426 1427 1428 1429 1430 1431 1432 1433 1434 1435 1436
1362 1364 1365 1366 1368 1369 1371 1372 1373 1374 1376 1377 1378 1380 1381 1382 1383 1385 1386 1387 1388 1389 1390 1391 1392 1393 1395 1396 1396 1397 1398 1399 1400 1401 1402 1403 1404 1405 1405 1406 1407 1407 1408 1409 1410 1411 1412 1413 1414 1415 1416 1417 1419 1420 1421 1421 1422 1423 1424 1425 1426 1426 1428 1429 1430 1431 1432 1433 1434
1362 1363 1365 1366 1367 1368 1370 1371 1372 1373 1375 1376 1378 1379 1380 1381 1383 1384 1386 1386 1388 1389 1390 1391 1392 1393 1394 1395 1396 1397 1398 1399 1399 1400 1401 1402 1403 1404 1405 1405 1406 1407 1408 1409 1410 1411 1411 1413 1414 1415 1415 1416 1417 1418 1418 1419 1420 1421 1422 1423 1424 1425 1426 1427 1428 1429 1430 1431 1432
1361 1363 1364 1365 1366 1367 1369 1370 1371 1373 1375 1376 1377 1379 1380 1381 1382 1384 1385 1386 1387 1388 1389 1391 1391 1392 1394 1395 1396 1396 1397 1398 1399 1400 1401 1402 1403 1403 1404 1404 1405 1406 1407 1408 1409 1410 1411 1411 1412 1413 1413 1414 1416 1416 1417 1418 1419 1420 1421 1421 1422 1424 1425 1426 1426 1427 1428 1429 1430
1361 1362 1363 1364 1365 1366 1368 1369 1371 1372 1374 1375 1377 1378 1379 1381 1382 1383 1385 1386 1387 1388 1389 1390 1391 1392 1393 1394 1395 1396 1397 1397 1399 1400 1401 1401 1402 1403 1403 1404 1405 1406 1406 1407 1408 1409 1410 1410 1411 1412 1413 1414 1414 1415 1416 1416 1417 1418 1419 1420 1421 1422 1423 1424 1425 1426 1426 1427 1428
1361 1361 1363 1364 1365 1366 1367 1368 1370 1371 1373 1375 1376 1377 1379 1381 1382 1383 1384 1386 1386 1388 1389 1390 1391 1392 1392 1392 1393 1394 1395 1396 1398 1399 1400 1401 1401 1402 1402 1404 1405 1405 1406 1407 1407 1408 1409 1409 1410 1411 1412 1413 1413 1414 1415 1416 1416 1417 1418 1419 1420 1421 1421 1422 1423 1424 1425 1426 1427
1360 1361 1362 1363 1364 1365 1366 1368 1369 1371 1372 1374 1376 1377 1378 1380 1381 1383 1384 1385 1386 1388 1388 1389 1389 1389 1390 1391 1392 1393 1394 1395 1396 1397 1398 1399 1400 1401 1402 1403 1404 1405 1406 1406 1406 1407 1408 1409 1410 1411 1411 1412 1412 1413 1414 1415 1416 1416 1417 1418 1419 1419 1420 1421 1422 1423 1424 1425 1426
1360 1361 1362 1363 1364 1365 1366 1367 1369 1371 1372 1374 1375 1376 1378 1380 1381 1382 1384 1385 1386 1386 1386 1386 1387 1388 1389 1391 1391 1392 1393 1394 1396 1396 1398 1399 1400 1401 1402 1403 1403 1404 1405 1406 1406 1407 1408 1408 1409 1410 1411 1411 1412 1412 1413 1414 1415 1415 1416 1416 1417 1418 1419 1420 1421 1422 1423 1424 1425
1359 1360 1362 1363 1364 1366 1366 1368 1369 1370 1372 1373 1375 1376 1378 1379 1381 1382 1383 1384 1384 1384 1384 1386 1387 1388 1389 1390 1391 1392 1393 1394 1395 1396 1397 1398 1399 1400 1401 1402 1403 1404 1404 1405 1406 1406 1407 1408 1409 1409 1410 1411 1411 1412 1412 1413 1414 1414 1415 1416 1416 1417 1418 1419 1420 1421 1421 1422 1423
1359 1360 1361 1362 1364 1365 1366 1368 1369 1370 1371 1373 1374 1376 1378 1379 1380 1380 1381 1381 1382 1382 1384 1385 1386 1387 1388 1389 1390 1391 1392 1394 1395 1396 1397 1398 1399 1400 1401 1401 1402 1403 1404 1404 1405 1406 1407 1407 1408 1409 1409 1410 1411 1411 1412 1412 1413 1414 1414 1415 1416 1416 1417 1418 1419 1420 1421 1421 1422
1358 1359 1360 1362 1363 1364 1366 1367 1368 1370 1371 1373 1374 1376 1377 1377 1377 1378 1379 1380 1381 1382 1384 1385 1386 1387 1388 1389 1390 1391 1392 1393 1394 1396 1396 1397 1399 1399 1400 1401 1401 1402 1402 1403 1404 1405 1406 1406 1407 1408 1408 1409 1410 1410 1411 1411 1412 1413 1413 1414 1415 1415 1416 1417 1418 1418 1419 1420 1421